TimeEST,TemperatureF,Dew PointF,Humidity,Sea Level PressureIn,VisibilityMPH,Wind Direction,Wind SpeedMPH,Gust SpeedMPH,PrecipitationIn,Events,Conditions,WindDirDegrees,DateUTC
12:15 AM,41.0,37.4,87,30.05,10.0,South,6.9,-,N/A,,Overcast,180,2012-12-03 05:15:00
12:35 AM,42.8,37.4,81,30.06,10.0,South,8.1,-,N/A,,Overcast,190,2012-12-03 05:35:00
12:55 AM,42.8,37.4,81,30.05,10.0,South,9.2,-,N/A,,Overcast,190,2012-12-03 05:55:00
1:15 AM,41.0,37.4,87,30.06,10.0,South,6.9,-,N/A,,Overcast,190,2012-12-03 06:15:00
1:35 AM,41.0,37.4,87,30.06,10.0,South,11.5,-,N/A,,Overcast,190,2012-12-03 06:35:00
1:55 AM,41.0,37.4,87,30.05,10.0,South,9.2,-,N/A,,Overcast,180,2012-12-03 06:55:00
2:14 AM,41.0,37.4,87,30.05,10.0,South,10.4,-,N/A,,Overcast,190,2012-12-03 07:14:00
2:35 AM,41.0,37.4,87,30.04,10.0,South,9.2,17.3,N/A,,Overcast,180,2012-12-03 07:35:00
2:55 AM,41.0,37.4,87,30.04,10.0,South,10.4,-,N/A,,Overcast,190,2012-12-03 07:55:00
3:14 AM,41.0,37.4,87,30.04,10.0,South,15.0,-,N/A,,Overcast,190,2012-12-03 08:14:00
3:35 AM,41.0,37.4,87,30.04,10.0,South,13.8,19.6,N/A,,Overcast,180,2012-12-03 08:35:00
3:55 AM,41.0,37.4,87,30.04,10.0,South,12.7,-,N/A,,Overcast,190,2012-12-03 08:55:00
4:15 AM,41.0,37.4,87,30.03,10.0,South,12.7,16.1,N/A,,Overcast,180,2012-12-03 09:15:00
4:35 AM,41.0,37.4,87,30.02,10.0,South,13.8,-,N/A,,Overcast,180,2012-12-03 09:35:00
4:54 AM,41.0,37.4,87,30.01,10.0,South,11.5,-,N/A,,Overcast,180,2012-12-03 09:54:00
5:15 AM,41.0,37.4,87,30.00,10.0,South,10.4,-,N/A,,Overcast,170,2012-12-03 10:15:00
5:35 AM,41.0,37.4,87,29.99,10.0,South,9.2,-,N/A,,Overcast,170,2012-12-03 10:35:00
5:54 AM,41.0,37.4,87,30.00,10.0,South,9.2,-,N/A,,Overcast,170,2012-12-03 10:54:00
6:15 AM,41.0,37.4,87,30.00,10.0,South,12.7,-,N/A,,Overcast,170,2012-12-03 11:15:00
6:34 AM,41.0,37.4,87,30.00,10.0,South,11.5,-,N/A,,Overcast,170,2012-12-03 11:34:00
6:55 AM,41.0,37.4,87,30.00,10.0,South,11.5,18.4,N/A,,Overcast,170,2012-12-03 11:55:00
7:15 AM,41.0,37.4,87,29.99,10.0,SSE,12.7,-,N/A,,Overcast,160,2012-12-03 12:15:00
7:34 AM,41.0,37.4,87,29.98,7.0,SSE,12.7,-,N/A,,Overcast,160,2012-12-03 12:34:00
7:55 AM,42.8,39.2,87,29.98,7.0,South,9.2,-,N/A,,Overcast,170,2012-12-03 12:55:00
8:14 AM,42.8,39.2,87,29.97,5.0,SSE,6.9,-,N/A,,Overcast,150,2012-12-03 13:14:00
8:35 AM,42.8,39.2,87,29.97,2.5,SSE,10.4,-,N/A,,Overcast,150,2012-12-03 13:35:00
8:55 AM,42.8,39.2,87,29.96,1.0,SE,9.2,-,N/A,,Overcast,130,2012-12-03 13:55:00
9:15 AM,42.8,39.2,87,29.96,0.5,SE,9.2,-,N/A,Fog,Fog,140,2012-12-03 14:15:00
9:35 AM,42.8,39.2,87,29.94,0.5,SE,9.2,-,N/A,Fog,Fog,130,2012-12-03 14:35:00
10:15 AM,42.8,41.0,93,29.93,0.5,SE,11.5,17.3,N/A,Fog,Fog,130,2012-12-03 15:15:00
10:35 AM,42.8,41.0,93,29.92,0.8,ESE,12.7,18.4,N/A,,Overcast,120,2012-12-03 15:35:00
10:54 AM,44.6,41.0,87,29.91,1.5,SE,13.8,18.4,N/A,,Overcast,130,2012-12-03 15:54:00
11:15 AM,44.6,42.8,93,29.90,1.8,ESE,10.4,17.3,N/A,,Overcast,120,2012-12-03 16:15:00
11:35 AM,44.6,41.0,87,29.89,1.8,SE,10.4,-,N/A,,Overcast,130,2012-12-03 16:35:00
11:55 AM,44.6,42.8,93,29.87,2.0,SE,11.5,-,N/A,,Overcast,130,2012-12-03 16:55:00
12:15 PM,44.6,42.8,93,29.86,2.0,SE,11.5,-,N/A,,Overcast,130,2012-12-03 17:15:00
12:35 PM,46.4,42.8,87,29.84,2.5,SE,11.5,-,N/A,,Overcast,130,2012-12-03 17:35:00
12:55 PM,46.4,42.8,87,29.84,3.0,SE,12.7,17.3,N/A,,Overcast,140,2012-12-03 17:55:00
1:15 PM,46.4,42.8,87,29.82,2.5,SE,12.7,-,N/A,,Overcast,140,2012-12-03 18:15:00
1:34 PM,46.4,42.8,87,29.80,2.0,SE,10.4,17.3,N/A,,Overcast,130,2012-12-03 18:34:00
1:55 PM,46.4,44.6,93,29.78,1.0,SE,10.4,16.1,N/A,,Overcast,130,2012-12-03 18:55:00
2:15 PM,46.4,44.6,93,29.76,0.8,SE,11.5,16.1,N/A,,Overcast,130,2012-12-03 19:15:00
2:35 PM,46.4,44.6,93,29.75,0.5,SE,11.5,18.4,N/A,Fog,Fog,130,2012-12-03 19:35:00
2:55 PM,46.4,44.6,93,29.74,0.5,SE,13.8,17.3,N/A,Fog,Fog,140,2012-12-03 19:55:00
3:15 PM,48.2,46.4,93,29.73,0.5,SE,12.7,19.6,N/A,,Light Drizzle,140,2012-12-03 20:15:00
3:35 PM,48.2,46.4,93,29.72,0.5,SE,11.5,17.3,N/A,Rain,Light Rain,130,2012-12-03 20:35:00
3:55 PM,48.2,46.4,93,29.71,1.0,SE,10.4,-,N/A,,Overcast,130,2012-12-03 20:55:00
4:15 PM,48.2,46.4,93,29.70,1.0,SE,11.5,16.1,N/A,,Overcast,130,2012-12-03 21:15:00
4:35 PM,48.2,46.4,93,29.70,0.8,SE,11.5,17.3,N/A,,Overcast,140,2012-12-03 21:35:00
4:54 PM,48.2,46.4,93,29.69,1.0,SE,11.5,-,N/A,,Overcast,130,2012-12-03 21:54:00
5:15 PM,48.2,46.4,93,29.68,0.8,SSE,10.4,18.4,N/A,Rain,Rain,150,2012-12-03 22:15:00
5:35 PM,48.2,46.4,93,29.68,0.8,SSE,9.2,17.3,N/A,Rain,Light Rain,160,2012-12-03 22:35:00
5:54 PM,50.0,48.2,94,29.68,0.8,South,15.0,-,N/A,Rain,Light Rain,170,2012-12-03 22:54:00
6:15 PM,50.0,46.4,87,29.66,0.5,SSE,15.0,20.7,N/A,Rain,Light Rain,160,2012-12-03 23:15:00
6:35 PM,50.0,48.2,94,29.65,0.5,SSE,16.1,21.9,N/A,,Light Drizzle,160,2012-12-03 23:35:00
6:55 PM,48.2,46.4,93,29.64,0.5,South,13.8,20.7,N/A,Rain,Light Rain,170,2012-12-03 23:55:00
7:15 PM,50.0,48.2,94,29.62,0.5,SSE,13.8,19.6,N/A,Rain,Heavy Rain,160,2012-12-04 00:15:00
7:34 PM,48.2,46.4,93,29.63,0.8,West,9.2,-,N/A,Rain,Light Rain,270,2012-12-04 00:34:00
7:55 PM,48.2,46.4,93,29.62,1.5,SSW,12.7,17.3,N/A,Rain,Light Rain,210,2012-12-04 00:55:00
8:15 PM,50.0,48.2,94,29.62,0.2,SW,13.8,21.9,N/A,Rain,Light Rain,220,2012-12-04 01:15:00
8:34 PM,48.2,46.4,93,29.61,0.2,SW,9.2,18.4,N/A,,Light Drizzle,220,2012-12-04 01:34:00
8:55 PM,48.2,46.4,93,29.60,0.2,SSW,10.4,-,N/A,,Drizzle,210,2012-12-04 01:55:00
9:15 PM,48.2,46.4,93,29.60,0.2,SSW,9.2,-,N/A,Fog,Fog,210,2012-12-04 02:15:00
9:35 PM,48.2,46.4,93,29.60,0.2,SW,5.8,-,N/A,Fog,Fog,230,2012-12-04 02:35:00
9:55 PM,48.2,46.4,93,29.60,0.2,SW,13.8,19.6,N/A,Fog,Fog,220,2012-12-04 02:55:00
10:15 PM,48.2,46.4,93,29.60,0.2,SW,11.5,17.3,N/A,Fog,Fog,220,2012-12-04 03:15:00
10:34 PM,48.2,46.4,93,29.61,0.2,SSW,11.5,18.4,N/A,Rain,Light Rain,210,2012-12-04 03:34:00
10:55 PM,46.4,44.6,93,29.61,0.2,SW,10.4,18.4,N/A,Rain,Light Rain,220,2012-12-04 03:55:00
11:15 PM,46.4,44.6,93,29.61,0.5,SW,3.5,-,N/A,,Light Drizzle,230,2012-12-04 04:15:00
11:34 PM,50.0,48.2,94,29.62,2.5,WSW,5.8,-,N/A,,Overcast,250,2012-12-04 04:34:00
11:55 PM,50.0,48.2,94,29.64,5.0,West,5.8,-,N/A,,Scattered Clouds,260,2012-12-04 04:55:00